Vertical_Velocity
1 4 1 -1 0 -2 -9 8 10 6 4 7 8 4 3 5 5 -1 2 4 4 3 4 9 3 -3 -1 1 0 -2 -1 1 3 -3 3 -1 2 -1 5 -4 0 6 -6
-7 -7 -6 4 7 7 7 2 -6 4 -4 -5 -13 0 0 5 -2 6 1 3 -4 -1 2 4 -11 8 5 1 -2 13 -5 -0 0 -1 0 -2 5 -2 2 -0 2 1 -3
2 0 4 -2 6 1 3 -7 -1 2 -2 -3 3 -1 -6 -1 -3 3 0 -3 3 3 -2 6 -2 -11 6 19 3 2 7 4 -3 0 0 0 2 2 2 -9 -2 1 -0
1 1 -12 0 -0 4 4 -2 3 4 -7 0 -0 -4 6 -4 -0 4 -2 -5 2 -2 0 -2 3 -0 -7 -4 9 26 4 3 1 4 2 0 1 2 -1 -1 3 -1 -1
-8 2 6 1 -0 4 5 -1 3 -6 -7 -1 -2 -1 -1 -0 2 2 -1 -5 -3 -0 -2 -2 2 -0 -0 -2 2 -5 4 19 -6 2 2 2 2 3 2 -1 -1 -0 1
8 -2 -1 -0 6 2 -1 -3 -7 -3 -2 -3 4 -1 -8 1 0 -3 -1 -6 -7 1 -0 -4 -1 -0 -3 -1 11 -9 -14 -0 2 0 1 4 1 -0 2 0 2 -0 0
-0 1 -3 -2 2 -4 4 0 -4 1 3 3 -1 3 -3 1 2 -2 -0 0 -2 4 2 -2 -0 1 4 -0 -3 2 -0 -10 4 -1 -0 5 2 3 1 5 4 3 -1
-4 2 3 6 1 -7 -2 -0 -3 -1 1 0 0 1 2 2 2 1 2 1 2 2 6 -2 0 -4 -3 -0 2 -2 -5 0 0 1 -3 1 -6 -4 4 1 6 5 5
-1 4 -4 -1 -6 -2 1 -4 -1 -4 2 5 2 0 1 4 2 -0 -0 0 -1 1 2 -1 1 -2 -5 -3 1 -5 2 -3 -5 -7 7 -5 2 -4 1 2 1 3 4
-1 -0 -3 0 -3 -2 -0 -6 -2 -0 -2 5 3 2 4 2 3 0 0 0 1 3 3 6 1 -1 -3 -6 -1 -3 1 -0 -1 2 7 9 -1 1 2 3 -1 2 2
3 -5 2 2 2 3 1 -2 0 1 0 3 -1 -2 2 2 1 -1 -2 -1 -2 -2 -2 -3 -3 2 4 3 -1 6 -0 4 -1 -2 4 -5 -6 -1 3 -3 2 7 2
-7 -2 6 6 3 5 6 5 5 6 4 4 3 1 -0 -1 -2 -0 -2 -3 -1 -1 3 5 2 1 -1 -4 1 7 1 3 2 4 3 -2 0 -4 1 7 2 -0 5
2 1 -4 -3 -2 -3 -6 -4 -5 -2 -1 -0 -1 1 1 -0 -3 -2 -1 -1 -2 -3 -3 -2 4 5 1 0 -5 -8 -6 2 3 4 7 5 -2 2 -4 1 2 2 1
-0 -2 -2 0 -2 -1 -2 -1 -3 -3 1 -2 -6 -4 -1 1 1 -1 -1 -1 1 2 -1 -3 -4 1 1 -1 2 -4 -5 -7 -4 -1 -2 3 2 3 1 2 2 3 2
1 1 -0 -2 -2 0 -1 -1 -3 -5 -2 -1 -4 -1 -1 -3 -0 2 2 2 -1 -3 -1 -1 -3 -4 -3 -0 1 2 1 -1 -7 -7 -6 -3 -3 3 1 4 4 2 6
3 2 0 2 -3 0 -1 -3 0 2 1 2 1 -0 1 0 1 2 -1 -1 -3 0 -2 -4 -3 -3 -1 -2 -5 -2 1 2 -0 -3 -7 -9 -3 2 6 3 3 3 6
-1 1 0 -2 -1 0 -1 -0 -0 -4 -5 -1 3 1 -1 1 3 3 6 3 1 4 4 3 -1 -1 -3 -2 -2 -7 -8 -3 -2 -5 -4 -2 -4 -1 1 -8 -1 2 3
-0 1 1 2 1 3 2 2 5 4 2 -2 -3 -3 -0 -3 -5 -1 -1 2 6 6 2 2 4 5 6 2 0 3 2 -7 -3 0 2 -2 -2 -1 -3 -5 -5 -0 6
2 2 4 5 3 0 0 1 2 3 3 5 7 0 -2 0 -2 1 0 -5 -2 2 1 -1 -2 -1 -4 -2 4 1 -3 0 -2 -13 -4 -3 -3 -1 -1 -2 -2 -6 5
3 3 3 0 2 1 1 -1 -0 -0 -4 -4 -2 10 7 0 -5 -2 2 1 1 0 2 -2 -1 -2 -2 -0 2 3 8 4 3 2 -5 0 -1 -3 -2 4 -1 4 -6
-2 -2 -1 -1 -2 -3 -1 -2 -0 -1 -3 -5 -5 -2 1 10 4 -5 -5 0 -3 1 2 1 2 -1 -3 -5 -3 -4 1 2 3 -1 -6 2 -2 3 -1 4 -4 -5 3
-2 -3 -7 -3 -1 -4 -6 -2 -2 -2 -2 -2 -2 -6 -5 -1 2 8 7 1 3 4 8 3 2 -2 2 -3 -4 -9 3 8 -8 5 0 -4 0 -0 4 2 3 0 3
5 5 8 4 -1 -2 -3 3 -1 -0 5 0 -1 0 -4 -3 0 -0 1 -0 -3 2 4 1 4 -1 -2 -1 -3 -7 -3 -5 2 -0 1 4 2 -1 1 3 6 1 1
4 2 3 5 6 -2 -2 -1 -0 -1 -1 -1 -5 -4 -0 -1 2 0 -2 -2 -3 -5 -3 -3 -4 4 5 3 1 -6 -7 -8 -1 12 1 1 -1 4 0 1 2 6 0
-0 -1 -1 -1 -1 -0 -8 -0 -3 1 -4 -4 -2 -2 -6 -2 -1 -4 -8 -9 -3 -6 0 -1 -2 -3 2 3 1 -3 1 -2 -5 -14 -3 19 -1 1 3 4 -3 3 7
-3 -3 0 -2 -6 -5 -4 -0 -6 -8 -4 -0 2 -1 -4 6 3 1 2 -3 -4 -10 -2 -3 -4 -6 -5 -2 -2 1 -4 -4 5 -9 -11 -11 4 13 1 1 8 -1 3
Height
5844 5844 5843 5843 5842 5842 5840 5838 5837 5835 5839 5840 5840 5840 5838 5837 5836 5835 5833 5833 5832 5831 5828 5828 5827 5826 5824 5825 5827 5827 5828 5828 5830 5830 5831 5832 5834 5836 5838 5840 5842 5844 5847
5839 5840 5840 5842 5841 5839 5837 5834 5835 5836 5839 5836 5836 5835 5834 5832 5831 5830 5830 5828 5826 5825 5825 5822 5821 5818 5817 5815 5819 5819 5821 5822 5824 5825 5828 5829 5831 5834 5837 5837 5838 5841 5843
5837 5837 5837 5838 5837 5836 5834 5832 5833 5832 5834 5833 5832 5831 5830 5828 5827 5825 5824 5823 5821 5822 5820 5820 5818 5811 5811 5812 5812 5812 5813 5815 5817 5819 5821 5825 5827 5830 5832 5834 5835 5837 5839
5832 5833 5835 5836 5835 5833 5831 5830 5829 5830 5829 5828 5826 5824 5824 5823 5822 5820 5819 5817 5817 5817 5818 5813 5811 5807 5805 5807 5807 5808 5803 5806 5811 5814 5815 5819 5822 5825 5827 5830 5833 5835 5836
5832 5833 5834 5833 5832 5831 5829 5827 5826 5824 5825 5823 5821 5820 5818 5816 5815 5816 5814 5814 5813 5812 5811 5808 5806 5804 5804 5803 5802 5804 5802 5802 5803 5810 5812 5813 5817 5820 5822 5825 5828 5830 5832
5829 5828 5829 5829 5828 5826 5825 5823 5820 5819 5818 5818 5816 5814 5811 5809 5808 5808 5809 5810 5809 5806 5804 5802 5799 5800 5798 5797 5803 5796 5797 5799 5800 5803 5806 5809 5809 5812 5816 5820 5823 5826 5829
5823 5823 5823 5824 5823 5821 5819 5816 5814 5813 5813 5812 5810 5809 5807 5805 5803 5803 5802 5804 5803 5801 5797 5797 5794 5792 5792 5792 5792 5793 5793 5796 5795 5794 5799 5804 5805 5807 5811 5815 5820 5823 5824
5819 5819 5818 5817 5814 5812 5811 5810 5809 5808 5807 5805 5805 5804 5802 5801 5800 5798 5797 5797 5796 5795 5794 5793 5791 5787 5788 5787 5788 5790 5789 5791 5787 5790 5792 5800 5802 5804 5809 5811 5815 5820 5821
5814 5812 5812 5811 5809 5807 5808 5806 5804 5803 5802 5800 5798 5797 5796 5795 5795 5794 5792 5792 5791 5790 5788 5786 5785 5782 5782 5782 5784 5784 5783 5780 5781 5784 5789 5793 5797 5799 5802 5807 5809 5814 5817
5812 5809 5806 5806 5805 5805 5805 5803 5801 5799 5798 5795 5794 5793 5792 5790 5789 5788 5787 5786 5785 5784 5782 5782 5781 5779 5777 5775 5775 5774 5774 5775 5779 5783 5785 5788 5792 5794 5795 5798 5803 5805 5809
5808 5805 5804 5804 5804 5803 5802 5800 5798 5797 5794 5792 5791 5789 5787 5786 5784 5783 5782 5781 5780 5779 5778 5776 5776 5775 5775 5774 5773 5772 5772 5772 5772 5774 5777 5780 5784 5788 5790 5789 5794 5798 5801
5805 5804 5805 5805 5804 5802 5801 5798 5796 5795 5792 5789 5787 5785 5782 5780 5779 5777 5776 5776 5775 5774 5773 5771 5769 5770 5770 5770 5769 5770 5771 5770 5769 5768 5769 5772 5775 5776 5779 5781 5785 5788 5792
5809 5806 5804 5802 5802 5801 5800 5798 5796 5794 5791 5788 5785 5783 5781 5778 5776 5773 5772 5769 5768 5767 5766 5764 5763 5762 5762 5762 5761 5762 5762 5762 5762 5762 5762 5761 5763 5766 5768 5768 5773 5778 5781
5808 5806 5804 5802 5801 5799 5797 5795 5794 5791 5788 5785 5783 5781 5777 5773 5772 5769 5767 5765 5762 5760 5759 5757 5755 5754 5753 5753 5754 5753 5752 5752 5752 5752 5751 5751 5751 5755 5758 5760 5762 5766 5770
5807 5805 5802 5799 5797 5796 5793 5790 5788 5785 5782 5779 5776 5773 5770 5766 5764 5762 5760 5758 5755 5753 5752 5750 5749 5746 5744 5743 5744 5744 5744 5744 5745 5744 5744 5743 5744 5745 5749 5751 5752 5754 5757
5804 5803 5800 5797 5794 5791 5789 5785 5783 5780 5778 5775 5771 5767 5764 5760 5758 5755 5752 5749 5746 5745 5743 5741 5741 5739 5737 5735 5733 5732 5732 5733 5733 5733 5734 5734 5735 5735 5737 5740 5741 5742 5745
5802 5800 5798 5794 5791 5788 5785 5781 5777 5773 5770 5767 5765 5761 5756 5752 5750 5748 5746 5742 5740 5737 5733 5731 5728 5727 5726 5725 5723 5722 5721 5719 5720 5720 5720 5722 5723 5725 5724 5724 5727 5729 5731
5799 5797 5795 5791 5787 5784 5781 5777 5774 5768 5764 5760 5757 5752 5748 5744 5739 5736 5734 5730 5728 5725 5722 5718 5716 5713 5711 5708 5707 5708 5708 5707 5706 5706 5708 5708 5709 5709 5710 5712 5712 5713 5717
5797 5793 5790 5786 5782 5778 5774 5770 5766 5762 5757 5751 5748 5743 5738 5733 5728 5723 5720 5717 5713 5710 5707 5704 5701 5700 5697 5694 5693 5692 5691 5692 5692 5693 5692 5694 5695 5695 5695 5697 5698 5699 5700
5792 5788 5785 5780 5776 5770 5766 5761 5756 5751 5747 5741 5736 5732 5728 5722 5716 5711 5708 5704 5699 5696 5693 5689 5686 5683 5679 5677 5676 5675 5674 5673 5674 5674 5676 5677 5678 5679 5680 5681 5683 5685 5689
5787 5782 5777 5771 5767 5761 5756 5751 5746 5741 5736 5731 5723 5717 5712 5709 5704 5698 5693 5689 5685 5682 5678 5674 5670 5665 5662 5659 5658 5656 5655 5656 5656 5655 5656 5658 5660 5662 5663 5664 5666 5668 5672
5781 5776 5770 5762 5756 5750 5746 5741 5735 5730 5725 5719 5712 5705 5698 5692 5687 5684 5679 5674 5669 5666 5663 5659 5654 5649 5645 5640 5637 5635 5635 5636 5633 5634 5635 5636 5639 5641 5645 5647 5649 5652 5654
5775 5770 5764 5756 5748 5741 5735 5729 5723 5718 5713 5707 5699 5693 5686 5680 5674 5669 5663 5656 5650 5646 5643 5639 5635 5631 5628 5622 5617 5613 5611 5612 5614 5613 5613 5615 5617 5620 5623 5627 5630 5632 5637
5768 5762 5756 5748 5741 5732 5725 5719 5711 5704 5696 5689 5683 5676 5671 5664 5659 5652 5645 5639 5635 5630 5625 5621 5617 5613 5609 5605 5599 5592 5588 5586 5590 5597 5596 5594 5595 5599 5601 5605 5609 5614 5618
5755 5748 5740 5733 5725 5717 5712 5707 5701 5693 5687 5679 5671 5664 5657 5650 5643 5637 5631 5625 5619 5613 5608 5602 5596 5591 5587 5582 5578 5573 5571 5569 5567 5566 5575 5578 5576 5576 5580 5583 5588 5594 5599
5741 5735 5730 5722 5713 5706 5699 5690 5683 5674 5664 5656 5650 5644 5638 5633 5625 5618 5612 5605 5599 5593 5588 5581 5575 5569 5564 5559 5557 5554 5552 5551 5552 5549 5548 5554 5556 5559 5558 5562 5567 5572 5578